FW7023 Weather Reports


Display with metric or nautical units.
time (UTC)temp
F
wind
direction
speed
MPH
gust
MPH
rain 1hr
in
rain 24hr
in
rain mn
in
humidity
%
barometer
mb
20260831200109 100 164 1.0 2.0 0.00 0.00 0.00 36 1012.7
20260831195605 100 193 4.0 5.0 0.00 0.00 0.00 37 1012.8
20260831195100 101 222 5.0 8.0 0.00 0.00 0.00 36 1012.9
20260831194555 100 174 3.0 3.0 0.00 0.00 0.00 37 1012.8
20260831194050 100 166 1.0 1.0 0.00 0.00 0.00 38 1012.6
20260831193546 99 211 7.0 8.0 0.00 0.00 0.00 38 1012.7
20260831193045 98 196 1.0 2.0 0.00 0.00 0.00 39 1013.0
20260831192540 98 226 6.0 8.0 0.00 0.00 0.00 39 1012.9
20260831192036 98 206 5.0 6.0 0.00 0.00 0.00 39 1012.8
20260831191531 97 237 3.0 3.0 0.00 0.00 0.00 39 1013.0
20260831191027 97 185 3.0 3.0 0.00 0.00 0.00 39 1013.1
20260831190523 97 183 3.0 3.0 0.00 0.00 0.00 40 1012.7
20260831190021 98 203 7.0 11.0 0.00 0.00 0.00 38 1013.0
20260831185517 98 288 0.0 1.0 0.00 0.00 0.00 40 1013.2
20260831185012 98 302 1.0 3.0 0.00 0.00 0.00 39 1013.1
20260831184506 97 48 3.0 3.0 0.00 0.00 0.00 40 1013.1
20260831184002 96 161 3.0 5.0 0.00 0.00 0.00 41 1013.1
20260831183501 96 214 5.0 6.0 0.00 0.00 0.00 41 1013.2
20260831183001 96 192 2.0 2.0 0.00 0.00 0.00 41 1013.2
20260831182456 97 200 2.0 3.0 0.00 0.00 0.00 40 1013.3
20260831181951 96 176 1.0 1.0 0.00 0.00 0.00 40 1013.4
20260831181446 97 20 4.0 6.0 0.00 0.00 0.00 39 1013.4
20260831180941 99 174 0.0 1.0 0.00 0.00 0.00 37 1013.4
20260831180436 98 198 1.0 2.0 0.00 0.00 0.00 37 1013.4
20260831175935 98 161 2.0 3.0 0.00 0.00 0.00 38 1013.6
20260831175431 97 188 1.0 2.0 0.00 0.00 0.00 39 1013.4
20260831174927 97 237 4.0 6.0 0.00 0.00 0.00 39 1013.6
20260831174422 98 174 5.0 6.0 0.00 0.00 0.00 38 1013.6
20260831173921 98 203 2.0 2.0 0.00 0.00 0.00 39 1013.8
20260831173420 98 159 1.0 2.0 0.00 0.00 0.00 39 1013.8
20260831172916 96 69 3.0 3.0 0.00 0.00 0.00 41 1013.8
20260831172412 96 174 2.0 2.0 0.00 0.00 0.00 42 1013.8
20260831171912 96 194 2.0 2.0 0.00 0.00 0.00 42 1013.7
20260831171408 95 146 5.0 8.0 0.00 0.00 0.00 42 1013.9
20260831170905 94 213 3.0 6.0 0.00 0.00 0.00 44 1014.0
20260831170401 95 204 3.0 6.0 0.00 0.00 0.00 42 1014.0
20260831165857 95 171 0.0 1.0 0.00 0.00 0.00 43 1014.2
20260831165353 94 307 1.0 2.0 0.00 0.00 0.00 44 1014.2
20260831164849 94 168 1.0 2.0 0.00 0.00 0.00 44 1014.4
20260831164345 93 164 5.0 10.0 0.00 0.00 0.00 46 1014.2
20260831163840 93 215 4.0 5.0 0.00 0.00 0.00 47 1014.4
20260831163336 93 230 3.0 3.0 0.00 0.00 0.00 45 1014.3
20260831162834 92 136 1.0 3.0 0.00 0.00 0.00 47 1014.3
20260831162330 91 105 2.0 3.0 0.00 0.00 0.00 47 1014.3
20260831161828 91 210 7.0 8.0 0.00 0.00 0.00 46 1014.6
20260831161325 91 207 4.0 5.0 0.00 0.00 0.00 47 1014.5
20260831160820 92 97 0.0 1.0 0.00 0.00 0.00 46 1014.5
20260831160314 91 218 5.0 7.0 0.00 0.00 0.00 46 1014.4
20260831155809 91 172 1.0 1.0 0.00 0.00 0.00 47 1014.4
20260831155306 90 203 3.0 3.0 0.00 0.00 0.00 47 1014.3
20260831154759 90 199 4.0 8.0 0.00 0.00 0.00 47 1013.9
20260831154255 89 166 1.0 2.0 0.00 0.00 0.00 49 1014.4
20260831153753 89 234 2.0 5.0 0.00 0.00 0.00 48 1014.3
20260831153249 89 188 6.0 9.0 0.00 0.00 0.00 48 1014.4
20260831152745 89 168 0.0 1.0 0.00 0.00 0.00 50 1014.4
20260831152242 88 187 2.0 2.0 0.00 0.00 0.00 50 1014.5
20260831151741 87 83 2.0 3.0 0.00 0.00 0.00 51 1014.2
20260831151241 87 229 2.0 2.0 0.00 0.00 0.00 52 1014.3
20260831150736 87 226 2.0 3.0 0.00 0.00 0.00 51 1014.6
20260831150232 87 206 5.0 6.0 0.00 0.00 0.00 51 1014.4
20260831145731 86 179 4.0 6.0 0.00 0.00 0.00 53 1014.2
20260831145227 86 230 3.0 5.0 0.00 0.00 0.00 53 1014.4
20260831144722 86 168 1.0 1.0 0.00 0.00 0.00 54 1014.1
20260831144219 86 200 1.0 2.0 0.00 0.00 0.00 54 1014.2
20260831143718 85 143 2.0 3.0 0.00 0.00 0.00 54 1014.2
20260831143214 86 191 2.0 3.0 0.00 0.00 0.00 54 1014.1
20260831142709 85 183 1.0 3.0 0.00 0.00 0.00 55 1014.5
20260831142205 84 165 3.0 3.0 0.00 0.00 0.00 56 1014.1
20260831141704 85 304 2.0 3.0 0.00 0.00 0.00 56 1014.3
20260831141159 84 150 0.0 1.0 0.00 0.00 0.00 55 1014.3
20260831140658 83 170 1.0 1.0 0.00 0.00 0.00 58 1014.1
20260831140153 82 207 2.0 2.0 0.00 0.00 0.00 58 1014.3
20260831135651 81 196 3.0 5.0 0.00 0.00 0.00 60 1014.2
20260831135147 81 171 1.0 1.0 0.00 0.00 0.00 60 1014.5
20260831134643 81 161 2.0 2.0 0.00 0.00 0.00 60 1014.6
20260831134138 80 190 2.0 2.0 0.00 0.00 0.00 60 1014.4
20260831133637 80 186 2.0 2.0 0.00 0.00 0.00 60 1014.5
20260831133132 80 202 4.0 5.0 0.00 0.00 0.00 61 1014.4
20260831132628 80 191 3.0 5.0 0.00 0.00 0.00 61 1014.5
20260831132127 79 169 0.0 0.0 0.00 0.00 0.00 61 1014.3
20260831131622 79 163 0.0 0.0 0.00 0.00 0.00 61 1014.2
20260831131118 79 182 0.0 0.0 0.00 0.00 0.00 61 1014.3
20260831130613 79 159 0.0 0.0 0.00 0.00 0.00 61 1014.4
20260831130109 79 168 1.0 2.0 0.00 0.00 0.00 62 1014.2
20260831125607 78 222 1.0 1.0 0.00 0.00 0.00 62 1013.9
20260831125103 78 196 1.0 1.0 0.00 0.00 0.00 62 1014.2
20260831124559 78 170 0.0 1.0 0.00 0.00 0.00 62 1014.0
20260831124054 78 212 1.0 1.0 0.00 0.00 0.00 63 1014.0
20260831123554 78 164 0.0 0.0 0.00 0.00 0.00 63 1013.6
20260831123049 77 179 0.0 1.0 0.00 0.00 0.00 63 1014.0
20260831122548 77 174 1.0 1.0 0.00 0.00 0.00 63 1014.0
20260831122044 77 174 1.0 1.0 0.00 0.00 0.00 64 1013.7
20260831121538 77 171 0.0 1.0 0.00 0.00 0.00 64 1013.8
20260831121035 77 167 0.0 0.0 0.00 0.00 0.00 64 1013.8
20260831120534 77 193 2.0 2.0 0.00 0.00 0.00 64 1013.6
20260831120030 77 164 0.0 0.0 0.00 0.00 0.00 64 1013.5
20260831115526 77 173 0.0 0.0 0.00 0.00 0.00 64 1013.6
20260831115021 77 191 1.0 2.0 0.00 0.00 0.00 64 1013.6
20260831114519 77 165 1.0 1.0 0.00 0.00 0.00 64 1013.4
20260831114014 77 166 0.0 1.0 0.00 0.00 0.00 63 1013.7
20260831113513 77 165 0.0 0.0 0.00 0.00 0.00 63 1013.6
20260831113009 77 153 0.0 1.0 0.00 0.00 0.00 63 1013.5
20260831112503 78 151 1.0 2.0 0.00 0.00 0.00 63 1013.5
20260831111958 78 179 3.0 3.0 0.00 0.00 0.00 62 1013.3
20260831111455 78 157 0.0 1.0 0.00 0.00 0.00 62 1013.4
20260831110950 78 213 2.0 2.0 0.00 0.00 0.00 61 1013.3
20260831110445 78 159 1.0 2.0 0.00 0.00 0.00 61 1013.4
20260831105944 78 214 7.0 9.0 0.00 0.00 0.00 61 1013.3
20260831105439 78 243 2.0 2.0 0.00 0.00 0.00 60 1013.2
20260831104934 79 186 3.0 3.0 0.00 0.00 0.00 60 1013.1
20260831104430 79 167 1.0 1.0 0.00 0.00 0.00 60 1012.9
20260831103926 79 175 1.0 1.0 0.00 0.00 0.00 59 1013.0
20260831103420 79 174 2.0 2.0 0.00 0.00 0.00 59 1013.0
20260831102915 79 166 2.0 3.0 0.00 0.00 0.00 59 1012.7
20260831102410 79 198 4.0 5.0 0.00 0.00 0.00 59 1012.7
20260831101905 79 178 1.0 2.0 0.00 0.00 0.00 59 1012.6
20260831101400 79 193 3.0 3.0 0.00 0.00 0.00 59 1012.6
20260831100856 79 193 3.0 5.0 0.00 0.00 0.00 59 1012.7
20260831100352 80 210 3.0 3.0 0.00 0.00 0.00 58 1012.5
20260831095852 80 204 4.0 5.0 0.00 0.00 0.00 58 1012.7
20260831095351 80 217 3.0 5.0 0.00 0.00 0.00 58 1012.7
20260831094847 80 174 3.0 3.0 0.00 0.00 0.00 58 1012.7
20260831094343 80 165 1.0 2.0 0.00 0.00 0.00 58 1012.6
20260831093838 80 194 3.0 3.0 0.00 0.00 0.00 58 1012.8
20260831093332 80 169 0.0 1.0 0.00 0.00 0.00 58 1012.5
20260831092829 80 168 2.0 2.0 0.00 0.00 0.00 58 1012.6
20260831092319 80 207 6.0 8.0 0.00 0.00 0.00 57 1012.4
20260831091814 80 234 1.0 2.0 0.00 0.00 0.00 57 1012.7
20260831091310 80 183 2.0 2.0 0.00 0.00 0.00 57 1012.7
20260831090805 80 215 1.0 2.0 0.00 0.00 0.00 57 1012.5
20260831090301 80 168 1.0 2.0 0.00 0.00 0.00 56 1012.7
20260831085757 80 142 1.0 1.0 0.00 0.00 0.00 56 1012.6
20260831085251 81 229 3.0 3.0 0.00 0.00 0.00 56 1012.7
20260831084746 81 215 5.0 7.0 0.00 0.00 0.00 56 1012.7
20260831084242 81 237 1.0 1.0 0.00 0.00 0.00 56 1012.7
20260831083738 81 211 3.0 3.0 0.00 0.00 0.00 56 1012.6
20260831083234 81 147 2.0 3.0 0.00 0.00 0.00 56 1012.5
20260831082732 81 163 1.0 1.0 0.00 0.00 0.00 56 1012.7
20260831082228 81 198 3.0 3.0 0.00 0.00 0.00 55 1012.6
20260831081723 81 178 1.0 2.0 0.00 0.00 0.00 56 1012.4
20260831081219 81 219 4.0 5.0 0.00 0.00 0.00 55 1012.3
20260831080714 81 204 3.0 3.0 0.00 0.00 0.00 55 1012.2
20260831080213 82 188 2.0 2.0 0.00 0.00 0.00 55 1012.3
20260831075709 82 185 3.0 3.0 0.00 0.00 0.00 55 1012.5
20260831075205 82 166 3.0 5.0 0.00 0.00 0.00 55 1012.3
20260831074704 82 201 5.0 6.0 0.00 0.00 0.00 55 1012.2
20260831074158 81 218 5.0 6.0 0.00 0.00 0.00 55 1012.2
20260831073654 81 186 4.0 5.0 0.00 0.00 0.00 56 1012.1
20260831073153 81 161 0.0 1.0 0.00 0.00 0.00 56 1012.4
20260831072649 81 213 4.0 5.0 0.00 0.00 0.00 56 1012.1
20260831072145 81 212 3.0 5.0 0.00 0.00 0.00 56 1012.2
20260831071644 81 177 0.0 0.0 0.00 0.00 0.00 56 1012.2
20260831071139 81 191 1.0 2.0 0.00 0.00 0.00 56 1012.1
20260831070638 81 206 1.0 1.0 0.00 0.00 0.00 56 1012.0
20260831070128 81 208 1.0 1.0 0.00 0.00 0.00 56 1011.9
20260831065626 81 163 0.0 0.0 0.00 0.00 0.00 56 1012.1
20260831065125 82 193 1.0 2.0 0.00 0.00 0.00 56 1012.0
20260831064620 82 172 0.0 0.0 0.00 0.00 0.00 55 1012.1
20260831064116 82 173 0.0 0.0 0.00 0.00 0.00 55 1012.0
20260831063612 82 159 1.0 1.0 0.00 0.00 0.00 54 1011.9
20260831063106 82 167 1.0 1.0 0.00 0.00 0.00 54 1012.0
20260831062606 82 163 1.0 1.0 0.00 0.00 0.00 53 1011.8
20260831062101 83 183 1.0 2.0 0.00 0.00 0.00 53 1011.9
20260831061558 83 208 2.0 3.0 0.00 0.00 0.00 53 1011.9
20260831061055 83 163 0.0 1.0 0.00 0.00 0.00 52 1011.8
20260831060551 84 164 2.0 2.0 0.00 0.00 0.00 52 1011.7
20260831060045 84 183 3.0 3.0 0.00 0.00 0.00 50 1011.6
20260831055540 85 161 0.0 0.0 0.00 0.00 0.00 50 1011.7
20260831055036 86 170 0.0 1.0 0.00 0.00 0.00 48 1011.6
20260831054535 86 161 0.0 0.0 0.00 0.00 0.00 47 1011.6
20260831054034 86 167 3.0 3.0 0.00 0.00 0.00 47 1011.5
20260831053532 86 179 1.0 1.0 0.00 0.00 0.00 46 1011.4
20260831053027 87 166 0.0 1.0 0.00 0.00 0.00 46 1011.6
20260831052526 87 163 0.0 0.0 0.00 0.00 0.00 46 1011.5
20260831052026 87 221 3.0 3.0 0.00 0.00 0.00 45 1011.5
20260831051524 87 178 2.0 3.0 0.00 0.00 0.00 45 1011.6
20260831051024 87 192 2.0 2.0 0.00 0.00 0.00 45 1011.2
20260831050523 88 190 3.0 3.0 0.00 0.00 0.00 45 1011.4
20260831050022 88 197 6.0 8.0 0.00 0.00 0.00 44 1011.4
20260831045521 88 210 2.0 3.0 0.00 0.00 0.00 44 1011.0
20260831045017 88 220 4.0 6.0 0.00 0.00 0.00 44 1011.4
20260831044512 88 170 2.0 3.0 0.00 0.00 0.00 44 1011.5
20260831044007 88 170 3.0 5.0 0.00 0.00 0.00 44 1011.5
20260831043507 88 173 2.0 3.0 0.00 0.00 0.00 44 1011.1
20260831043002 89 171 0.0 0.0 0.00 0.00 0.00 44 1011.5
20260831042457 89 205 1.0 2.0 0.00 0.00 0.00 43 1011.6
20260831041956 89 63 4.0 6.0 0.00 0.00 0.00 43 1011.4
20260831041452 89 206 2.0 3.0 0.00 0.00 0.00 43 1011.5
20260831040951 89 208 4.0 5.0 0.00 0.00 0.00 43 1011.5
20260831040447 89 219 5.0 7.0 0.00 0.00 0.00 43 1011.5
20260831035944 89 191 2.0 2.0 0.00 0.00 0.00 43 1011.5
20260831035443 89 205 5.0 7.0 0.00 0.00 0.00 43 1011.5
20260831034939 89 169 1.0 2.0 0.00 0.00 0.00 43 1011.4
20260831034434 90 199 2.0 2.0 0.00 0.00 0.00 43 1011.6
20260831033929 89 203 6.0 8.0 0.00 0.00 0.00 43 1011.5
20260831033424 90 194 3.0 3.0 0.00 0.00 0.00 43 1011.4
20260831032920 90 180 1.0 1.0 0.00 0.00 0.00 44 1011.6
20260831032420 90 222 5.0 7.0 0.00 0.00 0.00 44 1011.2
20260831031915 90 184 1.0 1.0 0.00 0.00 0.00 44 1011.5
20260831031414 90 208 1.0 2.0 0.00 0.00 0.00 44 1011.3
20260831030909 90 205 4.0 6.0 0.00 0.00 0.00 44 1011.2
20260831030408 90 190 3.0 5.0 0.00 0.00 0.00 44 1011.4
20260831025906 89 160 0.0 1.0 0.00 0.00 0.00 45 1011.3
20260831025401 89 218 3.0 3.0 0.00 0.00 0.00 45 1011.4
20260831024856 89 213 3.0 3.0 0.00 0.00 0.00 45 1011.3
20260831024355 89 209 5.0 6.0 0.00 0.00 0.00 46 1011.6
20260831023855 89 157 2.0 2.0 0.00 0.00 0.00 46 1011.4
20260831023353 89 235 4.0 5.0 0.00 0.00 0.00 46 1011.2
20260831022849 89 200 2.0 3.0 0.00 0.00 0.00 46 1011.3
20260831022348 89 191 0.0 0.0 0.00 0.00 0.00 46 1011.1
20260831021842 89 190 0.0 1.0 0.00 0.00 0.00 47 1010.9
20260831021336 89 142 0.0 1.0 0.00 0.00 0.00 47 1010.9
20260831020833 89 222 2.0 2.0 0.00 0.00 0.00 47 1011.1
20260831020332 89 151 0.0 1.0 0.00 0.00 0.00 47 1010.8
20260831015828 89 171 1.0 1.0 0.00 0.00 0.00 48 1010.8
20260831015324 89 181 1.0 1.0 0.00 0.00 0.00 47 1010.8
20260831014823 89 161 2.0 2.0 0.00 0.00 0.00 47 1010.8
20260831014318 90 200 1.0 2.0 0.00 0.00 0.00 47 1010.6
20260831013814 90 215 1.0 2.0 0.00 0.00 0.00 47 1010.5
20260831013313 90 201 1.0 1.0 0.00 0.00 0.00 47 1010.7
20260831012803 90 164 2.0 2.0 0.00 0.00 0.00 47 1010.5
20260831012258 90 137 1.0 3.0 0.00 0.00 0.00 47 1010.4
20260831011757 90 167 0.0 1.0 0.00 0.00 0.00 47 1010.1
20260831011253 90 168 1.0 1.0 0.00 0.00 0.00 47 1010.5
20260831010749 90 158 0.0 0.0 0.00 0.00 0.00 47 1010.4
20260831010248 90 155 0.0 0.0 0.00 0.00 0.00 48 1010.1
20260831005745 90 186 1.0 1.0 0.00 0.00 0.00 47 1010.1
20260831005240 91 173 0.0 1.0 0.00 0.00 0.00 47 1010.2
20260831004735 92 172 0.0 0.0 0.00 0.00 0.00 44 1010.0
20260831004231 92 152 0.0 0.0 0.00 0.00 0.00 43 1010.0
20260831003726 93 161 0.0 1.0 0.00 0.00 0.00 42 1009.8
20260831003222 94 200 0.0 0.0 0.00 0.00 0.00 41 1010.0
20260831002721 95 166 0.0 0.0 0.00 0.00 0.00 39 1009.9
20260831002216 95 173 0.0 0.0 0.00 0.00 0.00 38 1009.9
20260831001712 96 236 3.0 3.0 0.00 0.00 0.00 37 1009.8
20260831001206 96 211 5.0 6.0 0.00 0.00 0.00 36 1009.8
20260831000703 96 207 3.0 3.0 0.00 0.00 0.00 36 1009.8
20260831000158 97 202 4.0 5.0 0.00 0.00 0.00 35 1009.6
20260830235656 97 203 4.0 6.0 0.00 0.00 0.00 35 1009.6
20260830235152 97 195 4.0 5.0 0.00 0.00 0.00 35 1009.6
20260830234647 97 207 3.0 5.0 0.00 0.00 0.00 35 1009.7
20260830234142 97 183 3.0 6.0 0.00 0.00 0.00 35 1009.8
20260830233638 98 211 2.0 2.0 0.00 0.00 0.00 35 1009.6
20260830233133 98 193 3.0 3.0 0.00 0.00 0.00 34 1009.9
20260830232629 98 201 3.0 3.0 0.00 0.00 0.00 35 1009.8
20260830232125 98 119 3.0 3.0 0.00 0.00 0.00 35 1009.7
20260830231621 98 167 2.0 3.0 0.00 0.00 0.00 35 1009.7
20260830231120 98 194 3.0 5.0 0.00 0.00 0.00 36 1009.7
20260830230616 98 236 6.0 7.0 0.00 0.00 0.00 35 1009.7
20260830230115 99 235 4.0 5.0 0.00 0.00 0.00 35 1009.8
20260830225610 99 199 1.0 2.0 0.00 0.00 0.00 35 1009.6
20260830225105 99 208 5.0 8.0 0.00 0.00 0.00 34 1009.7
20260830224604 99 226 4.0 6.0 0.00 0.00 0.00 34 1009.7
20260830224100 99 205 2.0 5.0 0.00 0.00 0.00 34 1009.5
20260830223558 100 163 3.0 3.0 0.00 0.00 0.00 34 1009.8
20260830223057 100 204 9.0 10.0 0.00 0.00 0.00 33 1009.9
20260830222551 100 115 0.0 0.0 0.00 0.00 0.00 35 1009.7
20260830222048 100 211 2.0 3.0 0.00 0.00 0.00 34 1009.7
20260830221544 100 235 5.0 8.0 0.00 0.00 0.00 34 1009.9
20260830221040 100 98 4.0 6.0 0.00 0.00 0.00 34 1009.9
20260830220539 100 218 4.0 5.0 0.00 0.00 0.00 34 1009.6
20260830220037 100 208 4.0 7.0 0.00 0.00 0.00 35 1009.6
20260830215531 100 216 10.0 14.0 0.00 0.00 0.00 34 1009.7
20260830215026 100 186 4.0 6.0 0.00 0.00 0.00 34 1009.6
20260830214521 100 216 9.0 10.0 0.00 0.00 0.00 35 1009.9
20260830214016 100 212 8.0 14.0 0.00 0.00 0.00 35 1009.9
20260830213510 100 203 3.0 5.0 0.00 0.00 0.00 36 1009.8
20260830213006 100 208 5.0 8.0 0.00 0.00 0.00 35 1010.0
20260830212502 100 211 4.0 6.0 0.00 0.00 0.00 37 1010.0
20260830212001 100 209 5.0 8.0 0.00 0.00 0.00 37 1010.1
20260830211456 99 219 6.0 9.0 0.00 0.00 0.00 37 1010.1
20260830210951 99 212 3.0 3.0 0.00 0.00 0.00 37 1010.2
20260830210451 99 148 5.0 8.0 0.00 0.00 0.00 37 1010.2
20260830205949 99 208 4.0 5.0 0.00 0.00 0.00 38 1010.2
20260830205448 99 208 9.0 11.0 0.00 0.00 0.00 38 1010.5
20260830204944 99 238 6.0 7.0 0.00 0.00 0.00 38 1010.5
20260830204443 99 193 5.0 6.0 0.00 0.00 0.00 38 1010.8
20260830203938 99 215 4.0 5.0 0.00 0.00 0.00 38 1010.7
20260830203434 98 196 2.0 3.0 0.00 0.00 0.00 39 1010.5
20260830202933 98 174 5.0 7.0 0.00 0.00 0.00 39 1010.5
20260830202428 99 215 3.0 5.0 0.00 0.00 0.00 38 1011.1
20260830201924 99 234 3.0 6.0 0.00 0.00 0.00 38 1010.9
20260830201418 99 203 4.0 5.0 0.00 0.00 0.00 38 1011.0
20260830200914 98 208 4.0 6.0 0.00 0.00 0.00 38 1010.9